Current weather by "City, St" or "zip code"  
 

Current Conditions: Portland, Portland International Airport, OR

Mostly Cloudy


48.0 F

Last Updated on Oct 24 2020, 5:53 pm PDT
Humidity: 54%
Wind Speed: E 19.6 mph
Barometer 30.23 in
Dewpoint: 32.0 F
Visibility: 10.00 mi
Precip: --
Heat Index: NA
Wind Chill: 41 F
Current conditions at:

Portland, Portland International Airport, OR (KPDX)

Lat: 45.59578 Lon: 122.60917

Local Radar Image active severe weather and emergency alerts image image weather storm and storm spotter reports image weather observation monitoring service image
Local
Radar
Active
Alerts
Storm Reports Obs
Monitoring

Sign-up For Email & Text Message Weather Alert Notification Services



Advertise Here

Observation History for Portland, Portland International Airport, OR


Time Wind
(mph)
Vis
(mi)
Weather Precip (in) Temperature (F) Relative
Humidity
Wind
Chill
(F)
Heat
Index
(F)
Pressure
Air Dwpt altimeter
(in)
sea level
(mb)
Rmks
5:53 pm PDT E 19.6 10.00 Mostly Cloudy -- 48.0 32.0 54% 41 NA 30.23 1023.7
4:53 pm PDT E 19.6 G 27.6 10.00 Mostly Cloudy -- 49.0 34.0 56% 42 NA 30.21 1023.0
3:53 pm PDT E 19.6 10.00 Mostly Cloudy -- 50.0 33.1 52% 44 NA 30.20 1022.6
2:53 pm PDT E 21.9 10.00 Mostly Cloudy and Breezy -- 50.0 34.0 54% 43 NA 30.19 1022.1
1:53 pm PDT E 20.7 10.00 Overcast and Breezy -- 50.0 35.1 57% 43 NA 30.18 1022.0
12:53 pm PDT E 18.4 G 26.5 10.00 Mostly Cloudy -- 50.0 35.1 57% 44 NA 30.19 1022.1
11:53 am PDT NE 6.9 10.00 Overcast -- 49.0 41.0 74% 46 NA 30.17 1021.7
10:53 am PDT SE 6.9 10.00 Mostly Cloudy Trace 48.0 37.9 68% 45 NA 30.16 1021.3
9:53 am PDT E 15.0 10.00 Light Rain Trace 47.0 42.1 83% 41 NA 30.14 1020.7
8:53 am PDT N 0.0 10.00 Mostly Cloudy -- 48.0 43.0 83% NA NA 30.12 1019.7
7:53 am PDT NW 4.6 10.00 Mostly Cloudy -- 48.0 43.0 83% 46 NA 30.08 1018.6
6:53 am PDT NE 5.8 10.00 Mostly Cloudy -- 50.0 46.0 86% 48 NA 30.07 1018.1
5:53 am PDT N 0.0 10.00 Partly Cloudy -- 49.0 44.1 83% NA NA 30.04 1017.0
4:53 am PDT W 5.8 10.00 Partly Cloudy -- 51.0 46.0 83% 49 NA 30.01 1016.1
3:53 am PDT N 0.0 10.00 Mostly Cloudy Trace 49.0 46.0 90% NA NA 29.99 1015.4
2:53 am PDT NW 3.5 10.00 Overcast -- 50.0 46.9 89% NA NA 29.96 1014.5
1:53 am PDT N 0.0 10.00 A Few Clouds -- 47.0 43.0 86% NA NA 29.94 1013.7
12:53 am PDT W 5.8 10.00 Overcast -- 51.0 46.0 83% 49 NA 29.93 1013.5
11:53 pm PDT W 5.8 10.00 Partly Cloudy -- 49.0 45.0 86% 47 NA 29.91 1012.9
10:53 pm PDT W 3.5 10.00 Mostly Cloudy -- 54.0 48.0 80% NA NA 29.90 1012.6
9:53 pm PDT SW 5.8 10.00 Overcast -- 56.0 50.0 81% 55 NA 29.89 1012.2
8:53 pm PDT SW 5.8 10.00 Overcast -- 55.0 46.9 74% 54 NA 29.89 1012.2
7:53 pm PDT SW 3.5 10.00 Light Rain Trace 52.0 44.1 75% NA NA 29.90 1012.5
6:53 pm PDT SE 3.5 10.00 Overcast -- 55.0 44.1 67% NA NA 29.92 1013.0

Regional Weather Observation


Portland-Hillsboro Airport, OR (KHIO)

Overcast
48.0 F

Pearson Airfield, WA (KVUO)

Overcast
48.0 F

Portland, Portland International Airport, OR (KPDX)

Mostly Cloudy
48.0 F

Portland, Portland-Troutdale Airport, OR (KTTD)

Overcast
49.0 F

Aurora State Airport, OR (KUAO)

Fair
49.0 F

Southwest Washington Regional Airport, WA (KKLS)

Overcast
49.0 F